TimeIST,TemperatureF,Dew PointF,Humidity,Sea Level PressureIn,VisibilityMPH,Wind Direction,Wind SpeedMPH,Gust SpeedMPH,PrecipitationIn,Events,Conditions,WindDirDegrees,DateUTC
12:00 AM,84.2,71.6,66,29.71,1.7,West,4.6,-,N/A,,Haze,270,2013-09-06 18:30:00
12:30 AM,82.4,69.8,66,29.71,1.7,WSW,4.6,-,N/A,,Haze,250,2013-09-06 19:00:00
1:00 AM,82.4,69.8,66,29.71,1.7,West,5.8,-,N/A,,Haze,270,2013-09-06 19:30:00
1:30 AM,82.4,69.8,66,29.71,1.7,West,4.6,-,N/A,,Haze,270,2013-09-06 20:00:00
2:30 AM,80.6,69.8,70,29.71,1.9,WSW,5.8,-,N/A,,Haze,240,2013-09-06 21:00:00
3:00 AM,80.6,69.8,70,29.71,1.9,SW,5.8,-,N/A,,Haze,230,2013-09-06 21:30:00
3:30 AM,80.6,69.8,70,29.71,1.9,WSW,5.8,-,N/A,,Haze,250,2013-09-06 22:00:00
4:00 AM,78.8,68.0,69,29.71,2.2,West,4.6,-,N/A,,Haze,270,2013-09-06 22:30:00
4:30 AM,78.8,68.0,69,29.74,2.2,WNW,5.8,-,N/A,,Haze,290,2013-09-06 23:00:00
5:00 AM,78.8,68.0,69,29.74,2.2,West,5.8,-,N/A,,Haze,270,2013-09-06 23:30:00
5:30 AM,78.8,68.0,69,29.74,2.2,West,5.8,-,N/A,,Haze,270,2013-09-07 00:00:00
6:00 AM,78.8,68.0,69,29.74,2.2,West,4.6,-,N/A,,Haze,270,2013-09-07 00:30:00
6:30 AM,78.8,68.0,69,29.74,2.2,West,4.6,-,N/A,,Haze,260,2013-09-07 01:00:00
7:00 AM,78.8,68.0,69,29.77,2.2,WSW,5.8,-,N/A,,Haze,240,2013-09-07 01:30:00
7:30 AM,80.6,69.8,70,29.77,2.2,WSW,5.8,-,N/A,,Haze,240,2013-09-07 02:00:00
8:00 AM,82.4,69.8,66,29.77,2.2,SW,4.6,-,N/A,,Haze,230,2013-09-07 02:30:00
8:30 AM,82.4,69.8,66,29.77,2.2,West,6.9,-,N/A,,Haze,270,2013-09-07 03:00:00
9:00 AM,82.4,69.8,66,29.80,2.2,West,6.9,-,N/A,,Haze,260,2013-09-07 03:30:00
9:30 AM,84.2,69.8,62,29.80,2.2,West,6.9,-,N/A,,Haze,260,2013-09-07 04:00:00
10:00 AM,86.0,69.8,58,29.80,2.2,West,10.4,-,N/A,,Haze,260,2013-09-07 04:30:00
10:30 AM,89.6,69.8,52,29.80,2.2,WNW,11.5,-,N/A,,Haze,300,2013-09-07 05:00:00
11:00 AM,89.6,69.8,52,29.80,2.2,NW,11.5,-,N/A,,Haze,310,2013-09-07 05:30:00
11:30 AM,89.6,69.8,52,29.77,2.2,WNW,11.5,-,N/A,,Haze,300,2013-09-07 06:00:00
12:00 PM,89.6,69.8,52,29.77,2.2,WNW,11.5,-,N/A,,Haze,300,2013-09-07 06:30:00
12:30 PM,91.4,69.8,49,29.77,2.2,NW,10.4,-,N/A,,Haze,310,2013-09-07 07:00:00
1:00 PM,93.2,69.8,46,29.74,2.2,West,10.4,-,N/A,,Haze,260,2013-09-07 07:30:00
1:30 PM,93.2,69.8,46,29.74,2.2,West,9.2,-,N/A,,Haze,280,2013-09-07 08:00:00
2:00 PM,93.2,69.8,46,29.74,2.2,WNW,8.1,-,N/A,,Haze,300,2013-09-07 08:30:00
2:30 PM,93.2,69.8,46,29.71,2.2,WNW,8.1,-,N/A,,Haze,300,2013-09-07 09:00:00
3:00 PM,95.0,69.8,44,29.71,2.2,WNW,9.2,-,N/A,,Haze,300,2013-09-07 09:30:00
3:30 PM,95.0,68.0,41,29.71,2.2,WNW,10.4,-,N/A,,Haze,300,2013-09-07 10:00:00
4:00 PM,93.2,68.0,44,29.68,2.2,WNW,9.2,-,N/A,,Haze,290,2013-09-07 10:30:00
4:30 PM,93.2,68.0,44,29.68,2.2,WNW,8.1,-,N/A,,Haze,290,2013-09-07 11:00:00
5:00 PM,93.2,69.8,46,29.68,2.2,West,9.2,-,N/A,,Haze,280,2013-09-07 11:30:00
5:30 PM,93.2,69.8,46,29.68,2.2,WNW,8.1,-,N/A,,Haze,290,2013-09-07 12:00:00
6:00 PM,93.2,69.8,46,29.68,2.2,NW,10.4,-,N/A,,Haze,320,2013-09-07 12:30:00
6:30 PM,91.4,69.8,49,29.68,-9999.0,NW,8.1,-,N/A,,Haze,320,2013-09-07 13:00:00
7:00 PM,89.6,69.8,52,29.68,-9999.0,NW,6.9,-,N/A,,Haze,320,2013-09-07 13:30:00
8:30 PM,89.6,71.6,55,29.71,1.9,Calm,Calm,-,N/A,,Haze,0,2013-09-07 15:00:00
9:00 PM,89.6,71.6,55,29.71,1.9,Calm,Calm,-,N/A,,Haze,0,2013-09-07 15:30:00
9:30 PM,89.6,73.4,59,29.71,1.6,Calm,Calm,-,N/A,,Haze,0,2013-09-07 16:00:00
10:00 PM,87.8,73.4,62,29.71,1.6,NE,3.5,-,N/A,,Haze,40,2013-09-07 16:30:00
10:30 PM,86.0,71.6,62,29.71,1.6,ENE,4.6,-,N/A,,Haze,60,2013-09-07 17:00:00
11:00 PM,86.0,73.4,66,29.74,1.6,East,4.6,-,N/A,,Haze,80,2013-09-07 17:30:00
11:30 PM,84.2,73.4,70,29.74,1.6,ESE,3.5,-,N/A,,Haze,110,2013-09-07 18:00:00